Location: Dittelbrunn
(50.0738°N, 10.2196°E)
Time: 12:07:20
(UTC+00:00)

CENTAUR R/B - Pass Details

Date: 18 September 2020
Orbit: 755 x 1433 km, 63.4° (Epoch: 02 October)

Event Time Altitude Azimuth Distance (km) Brightness Sun altitude
Rises 19:23:22 0° 316° (NW) 4,072 7.1 -19.0°
Reaches altitude 10° 19:25:58 10° 317° (NW) 3,193 6.2 -19.4°
Maximum altitude 19:33:54 84° 46° (NE) 1,363 3.1 -20.5°
Enters shadow 19:38:32 32° 133° (SE) 2,213 3.8 -21.2°
